ELLXEBOS

Guest
Details From ELLX - Luxembourg
To EBOS - Oostende
Flight Number -
Tags generated
Created
Modified
Stats Distance 159 nm / 294 km
Max Altitude 12,100 ft / 3,688 m
Waypoints 3
Social Downloads 0
Likes 0
Share VATSIM

Download

Looking for another format? Having issues loading an existing format? Contact us
Advertisement - Login to hide

Notes

Basic altitude profile: - Ascent Rate: 2500ft/min - Ascent Speed: 250kts - Cruise Altitude: 35000ft - Cruise Speed: 420kts - Descent Rate: 1500ft/min - Descent Speed: 250kts Options: - Use NATs: yes - Use PACOTS: yes - Use low airways: yes - Use high airways: yes

Route

ELLX SISGA EBOS

ID Type Via Altitude Latitude Longitude Leg Dist Tot Dist Heading (true) Name
O ELLX APT - 0 ft / 0 m 49.62660˚ 6.21151˚ - 0 nm - Luxembourg
SISGA FIX - 12,100 ft / 3,688 m 50.61797˚ 4.05658˚ 102 nm 102 nm 306° / 305° -
O EBOS APT - 0 ft / 0 m 51.19997˚ 2.87501˚ 56 nm 158 nm 308° / 308° Oostende

Altitude Profile

Advertisement - Login to hide

ELLX

Details ICAO ELLX (LUX)
Name Luxembourg
Region Luxembourg
Timezone Europe/Luxembourg (UTC+1.0)
Stats Elevation 1,158 ft / 353 m (AMSL)
Location 49.626599° 6.211506°
Runways 1
Magnetic Variation 1.690° E

METAR

ELLX 161450Z 28007KT 9999 SCT014 BKN026 02/01 Q1013 NOSIG

Decode

TAF

TAF ELLX 161100Z 1612/1718 27008KT 9999 SCT012 BKN020 TEMPO 1611/1618 4000 -SHRASN BKN010TCU PROB30 TEMPO 1623/1706 2000 BR BKN003

Decode

Departure Runways

ID Width Length Bearing (true) Bearing (mag) Surface Threshold Offset Overrun Length
06 197 ft / 60 m 13,135 ft / 4,004 m 60.14° 58.45° Asphalt 0 ft / 0 m 0 ft / 0 m
24 197 ft / 60 m 13,135 ft / 4,004 m 240.18° 238.49° Asphalt 0 ft / 0 m 180 ft / 55 m

EBOS

Details ICAO EBOS (OST)
Name Oostende
Region Belgium
Timezone Europe/Brussels (UTC+1.0)
Stats Elevation 13 ft / 4 m (AMSL)
Location 51.199967° 2.875008°
Runways 1
Magnetic Variation 0.589° E

METAR

EBOS 161450Z 30014KT 9999 FEW023 SCT035 05/01 Q1017 NOSIG

Decode

TAF

TAF EBOS 161013Z 1612/1718 31015KT 9999 FEW015CB SCT030 BECMG 1710/1712 25010KT BECMG 1716/1718 19013KT PROB40 1717/1718 4000 RA SCT008 BKN013

Decode

Destination Runways

ID Width Length Bearing (true) Bearing (mag) Surface Threshold Offset Overrun Length
08 148 ft / 45 m 10,515 ft / 3,205 m 76.36° 75.77° Asphalt 984 ft / 300 m 0 ft / 0 m
26 148 ft / 45 m 10,515 ft / 3,205 m 256.39° 255.80° Asphalt 1,362 ft / 415 m 0 ft / 0 m

Approach Navaids

Runway Type Ident Frequency Range Bearing (true) Bearing (mag) Slope Elevation
08 Localiser IMI 111.55 MHz 18 nm / 33 km 76.37° 75.78° - 13 ft / 4 m (AMSL)
08 Glidescope IMI 111.55 MHz 10 nm / 19 km 76.37° 75.78° 3.00° 13 ft / 4 m (AMSL)
08 DME IMI 111.55 MHz 18 nm / 33 km - - - 13 ft / 4 m (AMSL)
26 Localiser IOS 109.50 MHz 18 nm / 33 km 256.37° 255.78° - 13 ft / 4 m (AMSL)
26 Glidescope IOS 109.50 MHz 10 nm / 19 km 256.37° 255.78° 3.00° 13 ft / 4 m (AMSL)

Popular Alternatives